Погода в Куньмине

Китай     25°02′47″N   102°42′40″E
темп.,
°C
ветер,
м/с
пор.,
м/с
влажн.,
%
обл.,
%
осадки,
мм/ч
давл.,
гПа
погр.,
м
14 мая, пт
пт1423:00+20ююз610500 0.0 10051175
02:00+19юз611510 0.0 10041224
05:00+18юз411555 0.0 10041083
08:00+18юз510550 0.0 10051132
11:00+23зюз7113711 0.0 10042063
14:00+26зюз8123368 0.0 10012680
17:00+25юз7123731 0.0 10002555
20:00+22юз613440 0.0 10021930
15 мая, сб
сб1523:00+20юз512531 0.0 10051350
02:00+19юз511600 0.0 10051322
05:00+18юз512640 0.0 10041234
08:00+19юз511600 0.0 10061278
11:00+24зюз811370 0.0 10051897
14:00+27зюз812294 0.0 10022518
17:00+27зюз9123043 0.0 10002851
20:00+24юз711400 0.0 10022058
16 мая, вс
вс1623:00+21юз613480 0.0 10051567
02:00+20юз411550 0.0 10041203
05:00+18зюз26630 0.0 1005538
08:00+18юз25620 0.0 1008519
11:00+24зюз463522 0.0 10072218
14:00+27юз562989 0.0 10052817
17:00+27зюз462647 0.0 10032871
20:00+24зюз473323 0.0 10051202
17 мая, пн
пн1723:00+22зсз253899 0.0 1008561
02:00+22юз264180 0.0 1008680
05:00+19всв12576 0.1 1008170
08:00+19в2262100 0.3 1010377
11:00+24ююз253646 0.2 10091886
14:00+26юз5730100 0.2 10052553
17:00+26зюз583253 0.0 10041929
20:00+24юз363862 0.0 10041108
18 мая, вт
вт1823:00+23ююз384213 0.0 1007796
02:00+21ююз364868 0.0 1006340
05:00+20ю13535 0.0 1006226
08:00+20ю245491 0.0 1008462
11:00+26зюз593685 0.0 10062301
14:00+26зюз793426 0.0 10032142
17:00+28зюз7103489 0.0 10012607
20:00+25юз684238 0.0 10021192